contact:dominique.lefevre@mio.osupytheas.fr, maurice.libes@osupytheas.fr
Project:EMSO Ligure-ouest http://www.emso-fr.org/EMSO-France
Sensor Aquadopp, line 04 Serial AQD8517 
DOI : "https://doi.org/10.17882/74513; https://doi.org/10.17882/83244" 
Title:EMSO Ligure Ouest : Data ligne ALBATROSS capteur AQUADOPP - deploiement 2021
Id,Date,Profondeur,Latitude,Longitude,X_East,Y_North,Z_Up,Amplitude_X,Amplitude_Y,Amplitude_Z,Batterie,SoundSpeed,Heading,Pitch,Roll,Pressure,Temperature,Speed,Direction
, , m, degrees North, degrees East, m.s-1, m.s-1,m.s-1, 1, 1, 1, Volt, m.s-1, degree, degree, degree, dbar, degree_C, m.s-1, degree
01,2021-12-06T21:30:00,500.0,42.79,6.0312,-0.081,-0.042,0.009,49.0,45.0,46.0,12.6,1505.8,145.1,-0.3,0.8,452.332,13.63,0.091,242.6
01,2021-12-06T22:00:00,500.0,42.79,6.0312,-0.071,-0.061,0.014,50.0,46.0,47.0,12.6,1505.8,135.9,-0.5,0.6,452.327,13.62,0.093,229.3
01,2021-12-06T22:30:00,500.0,42.79,6.0312,-0.083,-0.056,0.019,52.0,46.0,45.0,12.6,1505.8,127.6,0.0,0.7,452.34,13.62,0.1,236.0
01,2021-12-06T23:00:00,500.0,42.79,6.0312,-0.075,-0.063,0.02,50.0,46.0,45.0,12.6,1505.7,142.7,-0.1,0.6,452.3,13.61,0.097,230.0
01,2021-12-06T23:30:00,500.0,42.79,6.0312,-0.094,-0.054,0.015,50.0,47.0,48.0,12.6,1505.7,147.4,-0.6,0.8,452.27,13.59,0.108,240.1
01,2021-12-07T00:00:00,500.0,42.79,6.0312,-0.097,-0.057,0.014,48.0,46.0,46.0,12.6,1505.6,144.0,0.0,0.7,452.221,13.58,0.112,239.6
01,2021-12-07T00:30:00,500.0,42.79,6.0312,-0.089,-0.054,0.005,51.0,49.0,45.0,12.6,1505.8,117.5,-0.1,0.7,452.259,13.62,0.104,238.7
01,2021-12-07T01:00:00,500.0,42.79,6.0312,-0.102,0.004,-0.005,52.0,46.0,46.0,12.6,1505.8,148.5,-0.4,0.7,452.17,13.64,0.102,272.2
01,2021-12-07T01:30:00,500.0,42.79,6.0312,-0.077,-0.072,-0.005,50.0,46.0,45.0,12.6,1505.9,110.1,-0.3,0.8,452.155,13.67,0.105,226.9
01,2021-12-07T02:00:00,500.0,42.79,6.0312,-0.097,-0.002,0.019,49.0,45.0,45.0,12.6,1505.9,140.6,0.0,0.6,452.121,13.66,0.097,268.8
01,2021-12-07T02:30:00,500.0,42.79,6.0312,-0.087,0.019,0.018,49.0,44.0,46.0,12.6,1505.9,155.3,-0.3,0.7,452.089,13.66,0.089,282.3
01,2021-12-07T03:00:00,500.0,42.79,6.0312,-0.083,0.009,0.003,50.0,47.0,46.0,12.6,1505.9,143.6,-0.4,0.8,452.091,13.65,0.083,276.2
01,2021-12-07T03:30:00,500.0,42.79,6.0312,-0.061,-0.029,-0.013,49.0,47.0,43.0,12.6,1506.0,127.7,-0.3,0.7,452.036,13.68,0.067,244.6
01,2021-12-07T04:00:00,500.0,42.79,6.0312,-0.075,-0.026,0.011,50.0,44.0,47.0,12.6,1506.0,140.5,-0.2,0.8,452.108,13.71,0.079,250.9
01,2021-12-07T04:30:00,500.0,42.79,6.0312,-0.073,-0.022,0.01,49.0,47.0,45.0,12.6,1506.0,143.8,-0.1,0.6,452.088,13.7,0.076,253.2
01,2021-12-07T05:00:00,500.0,42.79,6.0312,-0.072,-0.043,0.011,48.0,46.0,45.0,12.6,1506.0,135.8,-0.5,0.7,452.089,13.69,0.083,239.2
01,2021-12-07T05:30:00,500.0,42.79,6.0312,-0.066,-0.025,0.008,48.0,45.0,45.0,12.6,1506.0,159.8,0.2,0.7,452.172,13.69,0.07,249.3
01,2021-12-07T06:00:00,500.0,42.79,6.0312,-0.077,-0.027,-0.006,50.0,45.0,46.0,12.6,1506.0,156.3,0.1,0.8,452.186,13.72,0.081,250.7
01,2021-12-07T06:30:00,500.0,42.79,6.0312,-0.078,-0.033,0.003,49.0,44.0,49.0,12.6,1506.0,154.0,0.0,0.8,452.226,13.72,0.084,247.1
01,2021-12-07T07:00:00,500.0,42.79,6.0312,-0.087,-0.013,0.017,50.0,45.0,46.0,12.6,1506.0,162.1,-0.3,0.8,452.272,13.7,0.087,261.5
01,2021-12-07T07:30:00,500.0,42.79,6.0312,-0.086,-0.021,0.01,51.0,46.0,45.0,12.6,1505.9,158.8,-0.1,0.8,452.29,13.66,0.088,256.3
01,2021-12-07T08:00:00,500.0,42.79,6.0312,-0.086,-0.03,0.017,52.0,46.0,46.0,12.6,1505.7,164.4,-0.4,0.7,452.311,13.61,0.091,250.8
01,2021-12-07T08:30:00,500.0,42.79,6.0312,-0.069,-0.023,0.011,51.0,46.0,47.0,12.6,1505.7,160.4,0.2,0.7,452.325,13.6,0.072,251.6
01,2021-12-07T09:00:00,500.0,42.79,6.0312,-0.087,-0.009,0.0,50.0,46.0,45.0,12.6,1505.7,169.6,-0.2,0.8,452.395,13.6,0.087,264.1
01,2021-12-07T09:30:00,500.0,42.79,6.0312,-0.086,-0.02,0.006,50.0,47.0,44.0,12.6,1505.7,171.6,0.4,0.7,452.396,13.61,0.088,256.9
01,2021-12-07T10:00:00,500.0,42.79,6.0312,-0.071,-0.011,-0.008,51.0,44.0,47.0,12.6,1505.6,161.8,-0.2,0.7,452.387,13.58,0.071,261.2
01,2021-12-07T10:30:00,500.0,42.79,6.0312,-0.096,-0.007,0.007,50.0,47.0,47.0,12.6,1505.5,175.5,-0.1,0.7,452.352,13.55,0.096,265.8
01,2021-12-07T11:00:00,500.0,42.79,6.0312,-0.082,-0.015,-0.006,51.0,44.0,44.0,12.6,1505.4,173.0,-0.4,0.8,452.353,13.51,0.083,259.6
01,2021-12-07T11:30:00,500.0,42.79,6.0312,-0.091,-0.014,-0.002,49.0,43.0,44.0,12.6,1505.4,171.0,0.1,0.7,452.376,13.51,0.092,261.3
01,2021-12-07T12:00:00,500.0,42.79,6.0312,-0.092,-0.001,0.004,49.0,45.0,45.0,12.6,1505.6,175.4,-0.4,0.6,452.335,13.56,0.092,269.4
01,2021-12-07T12:30:00,500.0,42.79,6.0312,-0.078,-0.002,0.0,51.0,45.0,45.0,12.6,1505.6,163.8,-0.2,0.6,452.294,13.57,0.078,268.5
01,2021-12-07T13:00:00,500.0,42.79,6.0312,-0.091,-0.012,0.001,47.0,46.0,46.0,12.6,1505.6,144.1,-0.1,0.8,452.249,13.58,0.091,262.5
01,2021-12-07T13:30:00,500.0,42.79,6.0312,-0.069,-0.007,0.006,51.0,47.0,46.0,12.6,1505.6,139.2,0.0,0.6,452.21,13.58,0.069,264.2
01,2021-12-07T14:00:00,500.0,42.79,6.0312,-0.083,-0.021,0.012,49.0,44.0,48.0,12.6,1505.6,134.8,-0.2,0.7,452.211,13.57,0.085,255.8
01,2021-12-07T14:30:00,500.0,42.79,6.0312,-0.067,-0.016,0.002,49.0,45.0,45.0,12.6,1505.5,128.7,0.0,0.6,452.205,13.54,0.068,256.6
01,2021-12-07T15:00:00,500.0,42.79,6.0312,-0.078,-0.005,0.0,49.0,46.0,46.0,12.6,1505.6,138.8,-0.2,0.6,452.161,13.56,0.078,266.3
01,2021-12-07T15:30:00,500.0,42.79,6.0312,-0.084,-0.02,0.016,48.0,47.0,46.0,12.6,1505.6,149.6,-0.2,0.8,452.126,13.57,0.086,256.6
01,2021-12-07T16:00:00,500.0,42.79,6.0312,-0.082,-0.017,0.024,49.0,47.0,45.0,12.6,1505.6,155.2,0.0,0.7,452.119,13.57,0.083,258.3
01,2021-12-07T16:30:00,500.0,42.79,6.0312,-0.101,0.008,0.015,49.0,47.0,45.0,12.6,1505.6,173.3,-0.4,0.7,452.09,13.58,0.101,274.5
01,2021-12-07T17:00:00,500.0,42.79,6.0312,-0.097,0.0,0.014,49.0,46.0,46.0,12.6,1505.6,154.9,-0.3,0.7,452.167,13.57,0.097,270.0
01,2021-12-07T17:30:00,500.0,42.79,6.0312,-0.098,-0.008,0.019,51.0,44.0,47.0,12.6,1505.5,153.2,0.1,0.7,452.169,13.55,0.098,265.3
01,2021-12-07T18:00:00,500.0,42.79,6.0312,-0.106,0.002,0.008,50.0,47.0,46.0,12.6,1505.5,161.3,0.4,0.7,452.161,13.53,0.106,271.1
01,2021-12-07T18:30:00,500.0,42.79,6.0312,-0.096,-0.005,-0.022,50.0,43.0,45.0,12.6,1505.4,153.7,-0.2,0.7,452.166,13.51,0.096,267.0
01,2021-12-07T19:00:00,500.0,42.79,6.0312,-0.084,0.0,0.003,50.0,45.0,46.0,12.5,1505.5,156.5,0.2,0.7,452.161,13.54,0.083,270.0
01,2021-12-07T19:30:00,500.0,42.79,6.0312,-0.094,0.015,0.004,50.0,47.0,48.0,12.6,1505.6,155.1,-0.4,0.7,452.211,13.57,0.095,279.1
01,2021-12-07T20:00:00,500.0,42.79,6.0312,-0.067,0.005,0.005,49.0,46.0,49.0,12.6,1505.8,165.1,0.3,0.7,452.244,13.62,0.067,274.3
01,2021-12-07T20:30:00,500.0,42.79,6.0312,-0.078,0.016,-0.009,50.0,47.0,47.0,12.6,1505.9,175.7,0.2,0.6,452.193,13.67,0.079,281.6
01,2021-12-07T21:00:00,500.0,42.79,6.0312,-0.069,-0.003,-0.004,51.0,47.0,48.0,12.6,1506.0,175.0,-0.5,0.7,452.223,13.73,0.069,267.5
